Location: Düngen
(52.0952°N, 10.0219°E)
Time: 18:24:23
(UTC+00:00)

CZ-4 R/B - Pass Details

Date: 11 March 2026
Orbit: 490 x 538 km, 97.6° (Epoch: 20 April)

Event Time Altitude Azimuth Distance (km) Brightness Sun altitude
Exits shadow 20:38:38 - 239° (WSW) 2,098 4.5 -29.8°
Maximum altitude 20:41:18 10° 275° (W) 1,773 4.5 -30.2°
Drops below altitude 10° 20:42:02 10° 286° (WNW) 1,804 4.7 -30.2°
Sets 20:46:04 0° 327° (NNW) 2,710 5.9 -30.7°
